Location: Newark
(35.6799°N, 139.7636°E)
Time: 20:38:29
(UTC+00:00)

Transit 2A - Pass Details

Date: 06 December 2019
Orbit: 601 x 958 km, 66.7° (Epoch: 21 January)

Event Time Altitude Azimuth Distance (km) Brightness Sun altitude
Rises 07:45:47 0° 334° (NNW) 2,876 9.0 -4.2°
Reaches altitude 10° 07:48:00 10° 336° (NNW) 1,990 8.2 -4.6°
Maximum altitude 07:52:27 76° 63° (ENE) 670 5.6 -5.4°
Drops below altitude 10° 07:57:15 10° 149° (SSE) 2,134 8.2 -6.3°
Sets 07:59:41 0° 151° (SSE) 3,104 9.1 -6.8°
